User: anonymous   Login
Location: Sawmill Trailhead
(33.5800°N, 116.4497°W)
Time: 17:14:12
(UTC-07:00)
Language:

Uosat F - Orbit

View from above orbital plane
View from above orbital plane
View from above satellite
View from above satellite

Ground track
Ground track

The orbit data is extracted from the following two-line orbital elements,

1 21575U 91050B   17289.54076099  .00000041  00000-0  27444-4 0  9992
2 21575  98.7528 308.8143 0006346 304.0925  55.9660 14.40816673378751
Epoch (UTC): 16 October 2017 12:58:41
Eccentricity: 0.0006346
inclination: 98.7528°
perigee height: 751 km
apogee height: 760 km
right ascension of ascending node: 308.8143°
argument of perigee: 304.0925°
revolutions per day: 14.40816673
mean anomaly at epoch: 55.9660°
orbit number at epoch: 37875

The dashed part of the orbit path shows where the satellite is in the earth's shadow,  

DLR